Location: ?????
(32.7281°N, 34.9563°E)
Time: 17:07:35
(UTC+00:00)

Cosmos 1300 - Pass Details

Date: 29 October 2020
Orbit: 511 x 513 km, 82.5° (Epoch: 30 November)

Event Time Altitude Azimuth Distance (km) Brightness Sun altitude
Rises 15:25:41 0° 200° (SSW) 2,612 6.7 -7.8°
Reaches altitude 10° 15:27:53 10° 207° (SSW) 1,730 5.9 -8.2°
Maximum altitude 15:31:29 41° 279° (W) 755 4.2 -9.0°
Drops below altitude 10° 15:35:07 10° 351° (N) 1,743 5.4 -9.7°
Sets 15:37:20 0° 358° (N) 2,633 6.2 -10.2°
